STARLINK-32809, 62849

Orbit data source: Space-Track

STARLINK-32809, 62849 is a payload satellite owned by SpaceX/Seattle (US) in LEO that was launched on Mon, 27 Jan 2025 UTC via an FALCON 9 launch vehicle from the Air Force Eastern Test Range (AFETR). Payload-class satellites include a variety of spacecraft equipped with specific instruments for various scientific and technological missions. These include communications satellites like Starlink; space stations such as the ISS; scientific satellites like the Hubble; Earth observation satellites from companies like Planet Labs, Umbra, and HawkEye 360; GPS; miniature CubeSats for education and research; and military/defense satellites.

Loading next visibility...
Identifier
62849, 2025-019W
Orbit
LEO
Country
Flag of USUS
Related business
Manufacturer
SpaceX/Seattle
Mission
Operational Commercial Communications
Bus & Motor
STARLINK V2M, Unknown motor
Mass
730 kg wet, ~700 kg dry
Launch date (UTC)
2025-01-27 (11 months ago)
Launch vehicle
FALCON 9
Launch site
Air Force Eastern Test Range (AFETR)
Object type
Payload
Rocket body
Debris
Shape & HBR
Box + 2 Pan, 17.7 m
Radar Cross Section
33.884 m², Large (>1 m²)

Expand to show TLE details & history
Last TLE update: 2 days ago

TLE from 2 days ago
0 STARLINK-32809
1 62849U 25019W   25348.02814156  .00022930  00000-0  83919-3 0  9994
2 62849  43.0010 212.4496 0002015 270.9423  89.1197 15.27618998 49152
Epoch: 2025-12-14T00:40Z
TLE epoch observation values (Epoch: 2025-12-14T00:40:31.430Z)
Latitude
-0.00009°
Longitude
119.37161°
Altitude
482.687 km
Speed
7.626 km/s
True Right ascension
14h 09m 47s
True Declination
0° 00' 00"
Sunlit
Object was in daylight at epoch
Visualization orbit readout
Latitude
Unknown
Longitude
Unknown
Altitude
Unknown
Speed
Unknown
Apparent Right ascension
Unknown
Apparent Declination
Unknown
Sunlit
N/A
Visualization observer readout
Local Sidereal Time
13:01:23
Azimuth
Unknown
Elevation
Unknown
Doppler factor
Unknown
Orbital elements
Apogee altitude
486.26 km
Perigee altitude
483.494 km
Semi-major axis
6,863.014 km
Eccentricity
0.0002
Inclination
43.001°
RAAN
212.4496°
Arg. of periapsis
270.9423°
True anomaly
89.14279°
Mean anomaly
89.1197°
Eccentric anomaly
89.13124°
Mean motion
3.81743 °/min
Orbital period
94.3 mins
BSTAR
0.00083919
Loading maneuver chart data...
Computing Atmospheric mass density...
Loading historical data...
Loading historical data...
Loading historical data...
Loading historical data...
Loading historical data...
Loading historical data...
Loading historical data...

Documentation

Showing up to 5 results
|